Weather WX

World > North America > United States > Missouri

Eldridge, Missouri Regional Weather

Lat: 37.83N, Lon: 92.75W
Wx Zone: MOZ081
Warning FLW WEATHER ALERT - (More Info. Click Here) Warning
Feedback

Eldridge, MO Regional Weather

Expires:201906161500;;162844
ASUS43 KLSX 161407
RWRMO 

WEATHER SUMMARY FOR MISSOURI
NATIONAL WEATHER SERVICE SPRINGFIELD MO
900 AM CDT SUN JUN 16 2019

NOTE: "FAIR" INDICATES FEW OR NO CLOUDS BELOW 12,000 FEET WITH NO
       SIGNIFICANT WEATHER AND/OR OBSTRUCTIONS TO VISIBILITY.
       CURRENT SKY AND/OR WEATHER CONDITIONS ARE NOT AVAILABLE FOR
       CHILLICOTHE AND FARMINGTON.


MOZ066>068-077>081-088>096-101>105-161500-
...SOUTHWEST MISSOURI...
  
CITY           SKY/WX    TMP DP  RH WIND       PRES   REMARKS
SPRINGFIELD    SUNNY     69  63  81 SE10      29.86F                  
JOPLIN         SUNNY     70  65  84 S8        29.85R                  
BRANSON        PTSUNNY   70  63  78 S6        29.94R                  
               
$$

SKY/WX - Weather  TMP - Temperature  DP - Dew Point  RH - Relative Humidity
WIND - Wind Direction/Speed PRES - Barometric Pressure VSB - Visibility
WCI - Wind Chill Index E13G22 Wind - East Wind 13 mph/Gusts of 22 mph